Time,TemperatureF,DewpointF,PressureIn,WindDirection,WindDirectionDegrees,WindSpeedMPH,WindSpeedGustMPH,Humidity,HourlyPrecipIn,Conditions,Clouds,dailyrainin,SolarRadiationWatts/m^2,SoftwareType,DateUTC
2013-06-28 00:00:00,81.5,77.6,28.55,ESE,115,0.0,0.0,88,0.00,FEW,,0.00,0.0,WeatherDisplay:10.37,2013-06-28 05:00:00,
2013-06-28 00:10:00,81.5,77.3,28.57,ESE,115,0.0,0.0,87,0.00,FEW,,0.00,0.0,WeatherDisplay:10.37,2013-06-28 05:10:00,
2013-06-28 00:20:00,81.5,77.2,28.58,ESE,115,0.0,0.0,87,0.00,FEW,,0.00,0.0,WeatherDisplay:10.37,2013-06-28 05:20:00,
2013-06-28 00:30:00,81.5,76.9,28.58,ESE,115,0.0,0.0,86,0.00,FEW,,0.00,0.0,WeatherDisplay:10.37,2013-06-28 05:30:00,
2013-06-28 00:40:00,81.9,76.9,28.57,ESE,115,0.0,1.0,85,0.00,FEW,,0.00,0.0,WeatherDisplay:10.37,2013-06-28 05:40:00,
2013-06-28 00:50:00,82.0,76.7,28.56,ESE,115,0.0,0.0,84,0.00,FEW,,0.00,0.0,WeatherDisplay:10.37,2013-06-28 05:50:00,
2013-06-28 01:00:00,82.0,76.7,28.55,ESE,115,0.0,1.0,84,0.00,FEW,,0.00,0.0,WeatherDisplay:10.37,2013-06-28 06:00:00,
2013-06-28 01:10:00,81.9,76.6,28.54,ESE,115,0.0,0.0,84,0.00,FEW,,0.00,0.0,WeatherDisplay:10.37,2013-06-28 06:10:00,
2013-06-28 01:20:00,81.7,76.8,28.54,ESE,115,0.0,0.0,85,0.00,FEW,,0.00,0.0,WeatherDisplay:10.37,2013-06-28 06:20:00,
2013-06-28 01:30:00,81.6,76.6,28.53,ESE,115,0.0,0.0,85,0.00,FEW,,0.00,0.0,WeatherDisplay:10.37,2013-06-28 06:30:00,
2013-06-28 01:40:00,81.4,76.5,28.52,ESE,115,0.0,0.0,85,0.00,FEW,,0.00,0.0,WeatherDisplay:10.37,2013-06-28 06:40:00,
2013-06-28 01:50:00,80.8,76.2,28.53,ESE,115,0.0,1.0,86,0.00,FEW,,0.00,0.0,WeatherDisplay:10.37,2013-06-28 06:50:00,
2013-06-28 02:00:00,80.7,74.0,28.60,NNW,327,8.0,27.0,80,0.00,FEW,,0.00,0.0,WeatherDisplay:10.37,2013-06-28 07:00:00,
2013-06-28 02:10:00,74.5,69.0,28.60,NW,323,10.0,26.0,83,0.03,RA,,0.03,0.0,WeatherDisplay:10.37,2013-06-28 07:10:00,
2013-06-28 02:20:00,69.5,67.0,28.64,WSW,252,20.0,40.0,92,0.42,RA,,0.42,0.0,WeatherDisplay:10.37,2013-06-28 07:20:00,
2013-06-28 02:30:00,68.7,65.3,28.54,ESE,104,2.0,20.0,89,0.62,RA,,0.62,0.0,WeatherDisplay:10.37,2013-06-28 07:30:00,
2013-06-28 02:40:00,68.7,66.0,28.58,West,267,2.0,6.0,91,0.73,RA,,0.73,0.0,WeatherDisplay:10.37,2013-06-28 07:40:00,
2013-06-28 02:50:00,68.1,66.0,28.59,SW,232,0.0,3.0,93,0.79,RA,,0.79,0.0,WeatherDisplay:10.37,2013-06-28 07:50:00,
2013-06-28 03:00:00,68.3,66.8,28.60,NE,36,1.0,6.0,95,0.83,RA,,0.83,0.0,WeatherDisplay:10.37,2013-06-28 08:00:00,
2013-06-28 03:10:00,69.2,67.1,28.57,NE,49,2.0,6.0,93,0.82,RA,,0.86,0.0,WeatherDisplay:10.37,2013-06-28 08:10:00,
2013-06-28 03:20:00,69.4,67.3,28.56,ENE,59,2.0,6.0,93,0.46,RA,,0.88,0.0,WeatherDisplay:10.37,2013-06-28 08:20:00,
2013-06-28 03:30:00,69.2,67.4,28.49,East,91,3.0,12.0,94,0.28,RA,,0.90,0.0,WeatherDisplay:10.37,2013-06-28 08:30:00,
2013-06-28 03:40:00,69.3,67.5,28.51,ENE,58,5.0,12.0,94,0.18,RA,,0.91,0.0,WeatherDisplay:10.37,2013-06-28 08:40:00,
2013-06-28 03:50:00,69.5,67.7,28.52,NE,47,6.0,10.0,94,0.13,RA,,0.92,0.0,WeatherDisplay:10.37,2013-06-28 08:50:00,
2013-06-28 04:00:00,69.9,68.1,28.54,NE,46,2.0,11.0,94,0.09,FEW,,0.92,0.0,WeatherDisplay:10.37,2013-06-28 09:00:00,
2013-06-28 04:10:00,70.2,69.0,28.58,WNW,295,7.0,13.0,96,0.07,FEW,,0.92,0.0,WeatherDisplay:10.37,2013-06-28 09:10:00,
2013-06-28 04:20:00,70.6,69.4,28.58,North,356,3.0,10.0,96,0.04,FEW,,0.92,0.0,WeatherDisplay:10.37,2013-06-28 09:20:00,
2013-06-28 04:30:00,70.9,69.7,28.58,NNW,339,1.0,7.0,96,0.02,FEW,,0.92,0.0,WeatherDisplay:10.37,2013-06-28 09:30:00,
2013-06-28 04:40:00,70.9,69.7,28.58,NNW,337,0.0,5.0,96,0.01,FEW,,0.92,0.0,WeatherDisplay:10.37,2013-06-28 09:40:00,
2013-06-28 04:50:00,70.8,69.6,28.56,NNW,337,0.0,1.0,96,0.00,FEW,,0.92,0.0,WeatherDisplay:10.37,2013-06-28 09:50:00,
2013-06-28 05:00:00,70.7,69.8,28.55,NNW,337,0.0,1.0,97,0.00,FEW,,0.92,0.0,WeatherDisplay:10.37,2013-06-28 10:00:00,
2013-06-28 05:10:00,70.6,69.7,28.53,NNW,337,0.0,0.0,97,0.00,FEW,,0.92,0.0,WeatherDisplay:10.37,2013-06-28 10:10:00,
2013-06-28 05:20:00,70.4,69.5,28.54,NNW,337,0.0,0.0,97,0.00,FEW,,0.92,0.0,WeatherDisplay:10.37,2013-06-28 10:20:00,
2013-06-28 05:30:00,70.3,69.4,28.54,NNW,337,0.0,0.0,97,0.00,FEW,,0.92,0.0,WeatherDisplay:10.37,2013-06-28 10:30:00,
2013-06-28 05:40:00,70.1,69.2,28.55,NNW,337,0.0,0.0,97,0.00,FEW,,0.92,0.0,WeatherDisplay:10.37,2013-06-28 10:40:00,
2013-06-28 05:50:00,70.1,69.2,28.55,NNW,337,0.0,0.0,97,0.00,FEW,,0.92,0.0,WeatherDisplay:10.37,2013-06-28 10:50:00,
2013-06-28 06:00:00,70.1,69.5,28.55,NNW,337,0.0,1.0,98,0.00,FEW,,0.92,0.0,WeatherDisplay:10.37,2013-06-28 11:00:00,
2013-06-28 06:10:00,70.1,69.5,28.56,NNW,337,0.0,3.0,98,0.00,FEW,,0.92,0.0,WeatherDisplay:10.37,2013-06-28 11:10:00,
2013-06-28 06:20:00,70.2,69.6,28.56,NNW,337,0.0,2.0,98,0.00,FEW,,0.92,0.0,WeatherDisplay:10.37,2013-06-28 11:20:00,
2013-06-28 06:30:00,70.2,69.6,28.56,NNW,337,0.0,3.0,98,0.00,FEW,,0.92,0.0,WeatherDisplay:10.37,2013-06-28 11:30:00,
2013-06-28 06:40:00,70.2,69.6,28.57,NNW,338,1.0,4.0,98,0.00,FEW,,0.92,0.0,WeatherDisplay:10.37,2013-06-28 11:40:00,
2013-06-28 06:50:00,70.3,69.7,28.57,NNW,346,1.0,4.0,98,0.00,FEW,,0.92,0.0,WeatherDisplay:10.37,2013-06-28 11:50:00,
2013-06-28 07:00:00,70.4,69.8,28.58,NNE,26,2.0,6.0,98,0.00,FEW,,0.92,0.0,WeatherDisplay:10.37,2013-06-28 12:00:00,
2013-06-28 07:10:00,70.3,69.7,28.58,NE,44,3.0,7.0,98,0.00,FEW,,0.92,0.0,WeatherDisplay:10.37,2013-06-28 12:10:00,
2013-06-28 07:20:00,70.4,69.8,28.58,NE,40,1.0,5.0,98,0.00,FEW,,0.92,0.0,WeatherDisplay:10.37,2013-06-28 12:20:00,
2013-06-28 07:30:00,70.7,70.1,28.58,NE,36,1.0,4.0,98,0.00,FEW,,0.92,0.0,WeatherDisplay:10.37,2013-06-28 12:30:00,
2013-06-28 07:40:00,71.4,70.8,28.59,NE,37,0.0,4.0,98,0.00,FEW,,0.92,0.0,WeatherDisplay:10.37,2013-06-28 12:40:00,
2013-06-28 07:50:00,71.7,70.8,28.60,NE,36,0.0,5.0,97,0.00,FEW,,0.92,0.0,WeatherDisplay:10.37,2013-06-28 12:50:00,
2013-06-28 08:00:00,71.7,70.2,28.60,NNE,13,0.0,5.0,95,0.00,FEW,,0.92,0.0,WeatherDisplay:10.37,2013-06-28 13:00:00,
2013-06-28 08:10:00,71.3,69.8,28.60,NW,317,0.0,5.0,95,0.00,FEW,,0.92,0.0,WeatherDisplay:10.37,2013-06-28 13:10:00,
2013-06-28 08:20:00,71.8,70.3,28.60,NW,317,0.0,3.0,95,0.00,FEW,,0.92,0.0,WeatherDisplay:10.37,2013-06-28 13:20:00,
2013-06-28 08:30:00,72.8,70.7,28.60,North,356,2.0,6.0,93,0.00,FEW,,0.92,0.0,WeatherDisplay:10.37,2013-06-28 13:30:00,
2013-06-28 08:40:00,73.5,70.7,28.60,North,10,0.0,3.0,91,0.00,FEW,,0.92,0.0,WeatherDisplay:10.37,2013-06-28 13:40:00,
2013-06-28 08:50:00,74.0,70.9,28.61,NW,304,1.0,6.0,90,0.00,FEW,,0.92,0.0,WeatherDisplay:10.37,2013-06-28 13:50:00,
2013-06-28 09:00:00,74.8,71.7,28.61,NNE,28,0.0,5.0,90,0.00,FEW,,0.92,0.0,WeatherDisplay:10.37,2013-06-28 14:00:00,
2013-06-28 09:10:00,75.4,70.9,28.61,NNE,25,2.0,5.0,86,0.00,FEW,,0.92,0.0,WeatherDisplay:10.37,2013-06-28 14:10:00,
2013-06-28 09:20:00,75.7,71.2,28.61,North,356,2.0,5.0,86,0.00,FEW,,0.92,0.0,WeatherDisplay:10.37,2013-06-28 14:20:00,
2013-06-28 09:30:00,76.0,70.5,28.61,WNW,297,2.0,5.0,83,0.00,FEW,,0.92,0.0,WeatherDisplay:10.37,2013-06-28 14:30:00,
2013-06-28 09:40:00,76.8,71.5,28.60,NE,38,0.0,6.0,84,0.00,FEW,,0.92,0.0,WeatherDisplay:10.37,2013-06-28 14:40:00,
2013-06-28 09:50:00,77.3,71.0,28.61,North,2,0.0,6.0,81,0.00,FEW,,0.92,0.0,WeatherDisplay:10.37,2013-06-28 14:50:00,
2013-06-28 10:00:00,77.6,71.0,28.61,NNE,17,0.0,7.0,80,0.00,FEW,,0.92,0.0,WeatherDisplay:10.37,2013-06-28 15:00:00,
2013-06-28 10:10:00,77.9,70.9,28.61,North,4,3.0,7.0,79,0.00,FEW,,0.92,0.0,WeatherDisplay:10.37,2013-06-28 15:10:00,
2013-06-28 10:20:00,78.5,71.1,28.61,North,7,2.0,6.0,78,0.00,FEW,,0.92,0.0,WeatherDisplay:10.37,2013-06-28 15:20:00,
2013-06-28 10:30:00,79.3,71.1,28.61,NE,34,2.0,7.0,76,0.00,FEW,,0.92,0.0,WeatherDisplay:10.37,2013-06-28 15:30:00,
2013-06-28 10:40:00,79.8,72.3,28.61,NE,50,2.0,9.0,78,0.00,FEW,,0.92,0.0,WeatherDisplay:10.37,2013-06-28 15:40:00,
2013-06-28 10:50:00,80.3,71.3,28.61,NNE,22,1.0,6.0,74,0.00,FEW,,0.92,0.0,WeatherDisplay:10.37,2013-06-28 15:50:00,
2013-06-28 11:00:00,81.0,71.9,28.61,North,353,3.0,8.0,74,0.00,FEW,,0.92,0.0,WeatherDisplay:10.37,2013-06-28 16:00:00,
2013-06-28 11:10:00,81.7,72.6,28.61,NNE,26,1.0,7.0,74,0.00,FEW,,0.92,0.0,WeatherDisplay:10.37,2013-06-28 16:10:00,
2013-06-28 11:20:00,82.1,70.1,28.61,NNE,21,3.0,9.0,67,0.00,FEW,,0.92,0.0,WeatherDisplay:10.37,2013-06-28 16:20:00,
2013-06-28 11:30:00,82.4,70.3,28.61,North,6,3.0,7.0,67,0.00,FEW,,0.92,0.0,WeatherDisplay:10.37,2013-06-28 16:30:00,
2013-06-28 11:40:00,82.9,72.5,28.61,North,4,2.0,10.0,71,0.00,FEW,,0.92,0.0,WeatherDisplay:10.37,2013-06-28 16:40:00,
2013-06-28 11:50:00,83.2,70.2,28.61,NNE,23,1.0,9.0,65,0.00,FEW,,0.92,0.0,WeatherDisplay:10.37,2013-06-28 16:50:00,
2013-06-28 12:00:00,83.8,68.9,28.62,NNE,31,1.0,7.0,61,0.00,FEW,,0.92,0.0,WeatherDisplay:10.37,2013-06-28 17:00:00,
2013-06-28 12:10:00,83.8,69.4,28.62,North,9,2.0,7.0,62,0.00,FEW,,0.92,0.0,WeatherDisplay:10.37,2013-06-28 17:10:00,
2013-06-28 12:20:00,84.1,69.2,28.61,NNE,13,0.0,8.0,61,0.00,FEW,,0.92,0.0,WeatherDisplay:10.37,2013-06-28 17:20:00,
2013-06-28 12:30:00,84.3,69.9,28.61,NNW,344,1.0,8.0,62,0.00,FEW,,0.92,0.0,WeatherDisplay:10.37,2013-06-28 17:30:00,
2013-06-28 12:40:00,84.3,69.9,28.61,NW,321,3.0,7.0,62,0.00,FEW,,0.92,0.0,WeatherDisplay:10.37,2013-06-28 17:40:00,
2013-06-28 12:50:00,84.6,71.1,28.60,NW,318,1.0,7.0,64,0.00,FEW,,0.92,0.0,WeatherDisplay:10.37,2013-06-28 17:50:00,
2013-06-28 13:00:00,84.4,69.0,28.60,NW,307,1.0,9.0,60,0.00,FEW,,0.92,0.0,WeatherDisplay:10.37,2013-06-28 18:00:00,
2013-06-28 13:10:00,85.3,71.2,28.59,North,349,0.0,7.0,63,0.00,FEW,,0.92,0.0,WeatherDisplay:10.37,2013-06-28 18:10:00,
2013-06-28 13:20:00,85.5,69.5,28.59,NW,312,2.0,10.0,59,0.00,FEW,,0.92,0.0,WeatherDisplay:10.37,2013-06-28 18:20:00,
2013-06-28 13:30:00,85.3,69.3,28.59,WNW,299,1.0,10.0,59,0.00,FEW,,0.92,0.0,WeatherDisplay:10.37,2013-06-28 18:30:00,
2013-06-28 13:40:00,85.9,67.3,28.59,WNW,294,1.0,7.0,54,0.00,FEW,,0.92,0.0,WeatherDisplay:10.37,2013-06-28 18:40:00,
2013-06-28 13:50:00,85.0,67.5,28.58,NNW,334,2.0,6.0,56,0.00,FEW,,0.92,0.0,WeatherDisplay:10.37,2013-06-28 18:50:00,
2013-06-28 14:00:00,84.6,67.7,28.58,NW,314,1.0,6.0,57,0.00,FEW,,0.92,0.0,WeatherDisplay:10.37,2013-06-28 19:00:00,
2013-06-28 14:10:00,84.3,68.9,28.58,NW,319,3.0,12.0,60,0.00,FEW,,0.92,0.0,WeatherDisplay:10.37,2013-06-28 19:10:00,
2013-06-28 14:20:00,84.6,68.7,28.57,NNW,335,2.0,9.0,59,0.00,FEW,,0.92,0.0,WeatherDisplay:10.37,2013-06-28 19:20:00,
2013-06-28 14:30:00,85.3,67.3,28.57,NW,314,1.0,10.0,55,0.00,FEW,,0.92,0.0,WeatherDisplay:10.37,2013-06-28 19:30:00,
2013-06-28 14:40:00,85.4,69.4,28.57,West,268,3.0,12.0,59,0.00,FEW,,0.92,0.0,WeatherDisplay:10.37,2013-06-28 19:40:00,
2013-06-28 14:50:00,85.2,67.2,28.57,WNW,297,2.0,12.0,55,0.00,FEW,,0.92,0.0,WeatherDisplay:10.37,2013-06-28 19:50:00,
2013-06-28 15:00:00,84.8,67.4,28.57,NNW,333,2.0,8.0,56,0.00,FEW,,0.92,0.0,WeatherDisplay:10.37,2013-06-28 20:00:00,
2013-06-28 15:10:00,84.2,67.8,28.56,NW,321,0.0,7.0,58,0.00,FEW,,0.92,0.0,WeatherDisplay:10.37,2013-06-28 20:10:00,
2013-06-28 15:20:00,84.9,69.0,28.55,NNW,337,2.0,7.0,59,0.00,FEW,,0.92,0.0,WeatherDisplay:10.37,2013-06-28 20:20:00,
2013-06-28 15:30:00,85.5,69.5,28.55,NW,320,1.0,10.0,59,0.00,FEW,,0.92,0.0,WeatherDisplay:10.37,2013-06-28 20:30:00,
2013-06-28 15:40:00,85.8,69.3,28.54,NW,312,0.0,12.0,58,0.00,FEW,,0.92,0.0,WeatherDisplay:10.37,2013-06-28 20:40:00,
2013-06-28 15:50:00,86.1,68.6,28.54,NW,318,3.0,14.0,56,0.00,FEW,,0.92,0.0,WeatherDisplay:10.37,2013-06-28 20:50:00,
2013-06-28 16:00:00,85.6,68.1,28.54,NW,317,2.0,15.0,56,0.00,FEW,,0.92,0.0,WeatherDisplay:10.37,2013-06-28 21:00:00,
2013-06-28 16:10:00,86.2,68.1,28.54,NW,321,3.0,15.0,55,0.00,FEW,,0.92,0.0,WeatherDisplay:10.37,2013-06-28 21:10:00,
2013-06-28 16:20:00,86.3,68.8,28.53,NW,307,6.0,12.0,56,0.00,FEW,,0.92,0.0,WeatherDisplay:10.37,2013-06-28 21:20:00,
2013-06-28 16:30:00,86.6,69.6,28.53,WNW,302,3.0,12.0,57,0.00,FEW,,0.92,0.0,WeatherDisplay:10.37,2013-06-28 21:30:00,
2013-06-28 16:40:00,87.0,70.4,28.52,NW,323,2.0,7.0,58,0.00,FEW,,0.92,0.0,WeatherDisplay:10.37,2013-06-28 21:40:00,
2013-06-28 16:50:00,86.7,70.6,28.52,NW,312,2.0,10.0,59,0.00,FEW,,0.92,0.0,WeatherDisplay:10.37,2013-06-28 21:50:00,
2013-06-28 17:00:00,86.2,70.2,28.52,NNW,342,8.0,13.0,59,0.00,FEW,,0.92,0.0,WeatherDisplay:10.37,2013-06-28 22:00:00,
2013-06-28 17:10:00,86.8,71.2,28.52,NW,304,2.0,8.0,60,0.00,FEW,,0.92,0.0,WeatherDisplay:10.37,2013-06-28 22:10:00,
2013-06-28 17:20:00,86.6,70.6,28.52,NNW,327,3.0,12.0,59,0.00,FEW,,0.92,0.0,WeatherDisplay:10.37,2013-06-28 22:20:00,
2013-06-28 17:30:00,86.5,71.5,28.52,NW,320,2.0,13.0,61,0.00,FEW,,0.92,0.0,WeatherDisplay:10.37,2013-06-28 22:30:00,
2013-06-28 17:40:00,86.0,71.5,28.52,WNW,293,2.0,13.0,62,0.00,FEW,,0.92,0.0,WeatherDisplay:10.37,2013-06-28 22:40:00,
2013-06-28 17:50:00,85.8,69.3,28.52,North,0,3.0,12.0,58,0.00,FEW,,0.92,0.0,WeatherDisplay:10.37,2013-06-28 22:50:00,
2013-06-28 18:00:00,85.7,69.7,28.52,North,7,1.0,12.0,59,0.00,FEW,,0.92,0.0,WeatherDisplay:10.37,2013-06-28 23:00:00,
2013-06-28 18:10:00,85.6,68.6,28.52,North,6,3.0,7.0,57,0.00,FEW,,0.92,0.0,WeatherDisplay:10.37,2013-06-28 23:10:00,
2013-06-28 18:20:00,85.6,69.7,28.51,NNW,335,1.0,9.0,59,0.00,FEW,,0.92,0.0,WeatherDisplay:10.37,2013-06-28 23:20:00,
2013-06-28 18:30:00,85.5,68.0,28.51,North,10,5.0,12.0,56,0.00,FEW,,0.92,0.0,WeatherDisplay:10.37,2013-06-28 23:30:00,
2013-06-28 18:40:00,84.8,66.8,28.51,North,355,1.0,13.0,55,0.00,FEW,,0.92,0.0,WeatherDisplay:10.37,2013-06-28 23:40:00,
2013-06-28 18:50:00,84.5,66.5,28.51,NNE,13,1.0,12.0,55,0.00,FEW,,0.92,0.0,WeatherDisplay:10.37,2013-06-28 23:50:00,
2013-06-28 19:00:00,84.1,66.2,28.51,North,1,1.0,13.0,55,0.00,FEW,,0.92,0.0,WeatherDisplay:10.37,2013-06-29 00:00:00,
2013-06-28 19:10:00,84.0,65.6,28.51,North,351,3.0,10.0,54,0.00,FEW,,0.92,0.0,WeatherDisplay:10.37,2013-06-29 00:10:00,
2013-06-28 19:20:00,83.7,64.2,28.51,North,356,3.0,10.0,52,0.00,FEW,,0.92,0.0,WeatherDisplay:10.37,2013-06-29 00:20:00,
2013-06-28 19:30:00,83.2,63.7,28.51,North,8,0.0,12.0,52,0.00,FEW,,0.92,0.0,WeatherDisplay:10.37,2013-06-29 00:30:00,
2013-06-28 19:40:00,82.7,62.2,28.51,NNE,14,1.0,7.0,50,0.00,FEW,,0.92,0.0,WeatherDisplay:10.37,2013-06-29 00:40:00,
2013-06-28 19:50:00,82.4,61.9,28.52,North,7,0.0,7.0,50,0.00,FEW,,0.92,0.0,WeatherDisplay:10.37,2013-06-29 00:50:00,
2013-06-28 20:00:00,82.2,61.7,28.52,NW,317,1.0,6.0,50,0.00,FEW,,0.92,0.0,WeatherDisplay:10.37,2013-06-29 01:00:00,
2013-06-28 20:10:00,81.2,61.9,28.52,North,353,1.0,9.0,52,0.00,FEW,,0.92,0.0,WeatherDisplay:10.37,2013-06-29 01:10:00,
2013-06-28 20:20:00,80.4,61.2,28.51,North,8,0.0,10.0,52,0.00,FEW,,0.92,0.0,WeatherDisplay:10.37,2013-06-29 01:20:00,
2013-06-28 20:30:00,79.8,61.1,28.52,North,349,0.0,10.0,53,0.00,FEW,,0.92,0.0,WeatherDisplay:10.37,2013-06-29 01:30:00,
2013-06-28 20:40:00,79.2,61.1,28.52,North,358,1.0,5.0,54,0.00,FEW,,0.92,0.0,WeatherDisplay:10.37,2013-06-29 01:40:00,
2013-06-28 20:50:00,78.7,61.7,28.52,NW,318,0.0,4.0,56,0.00,FEW,,0.92,0.0,WeatherDisplay:10.37,2013-06-29 01:50:00,
2013-06-28 21:00:00,78.2,61.7,28.52,NW,322,0.0,4.0,57,0.00,FEW,,0.92,0.0,WeatherDisplay:10.37,2013-06-29 02:00:00,
2013-06-28 21:10:00,77.6,61.6,28.52,NW,323,0.0,2.0,58,0.00,FEW,,0.92,0.0,WeatherDisplay:10.37,2013-06-29 02:10:00,
2013-06-28 21:20:00,77.0,62.0,28.51,NNW,334,0.0,4.0,60,0.00,FEW,,0.92,0.0,WeatherDisplay:10.37,2013-06-29 02:20:00,
2013-06-28 21:30:00,76.5,62.0,28.51,NNW,336,0.0,4.0,61,0.00,FEW,,0.92,0.0,WeatherDisplay:10.37,2013-06-29 02:30:00,
2013-06-28 21:40:00,76.0,62.1,28.52,NNW,336,0.0,1.0,62,0.00,FEW,,0.92,0.0,WeatherDisplay:10.37,2013-06-29 02:40:00,
2013-06-28 21:50:00,75.7,62.2,28.52,NNW,336,0.0,1.0,63,0.00,FEW,,0.92,0.0,WeatherDisplay:10.37,2013-06-29 02:50:00,
2013-06-28 22:00:00,75.7,61.7,28.52,NNW,336,1.0,4.0,62,0.00,FEW,,0.92,0.0,WeatherDisplay:10.37,2013-06-29 03:00:00,
2013-06-28 22:10:00,75.7,61.8,28.53,NNW,339,2.0,6.0,62,0.00,FEW,,0.92,0.0,WeatherDisplay:10.37,2013-06-29 03:10:00,
2013-06-28 22:20:00,75.6,61.7,28.53,NNW,341,1.0,3.0,62,0.00,FEW,,0.92,0.0,WeatherDisplay:10.37,2013-06-29 03:20:00,
2013-06-28 22:30:00,75.4,61.4,28.53,NNW,344,0.0,3.0,62,0.00,FEW,,0.92,0.0,WeatherDisplay:10.37,2013-06-29 03:30:00,
2013-06-28 22:40:00,75.0,61.1,28.53,NNW,344,0.0,1.0,62,0.00,FEW,,0.92,0.0,WeatherDisplay:10.37,2013-06-29 03:40:00,
2013-06-28 22:50:00,74.5,61.1,28.53,NNW,344,0.0,2.0,63,0.00,FEW,,0.92,0.0,WeatherDisplay:10.37,2013-06-29 03:50:00,
2013-06-28 23:00:00,74.3,60.9,28.53,NNW,345,1.0,4.0,63,0.00,FEW,,0.92,0.0,WeatherDisplay:10.37,2013-06-29 04:00:00,
2013-06-28 23:10:00,74.4,61.0,28.53,NNW,347,0.0,3.0,63,0.00,FEW,,0.92,0.0,WeatherDisplay:10.37,2013-06-29 04:10:00,
2013-06-28 23:20:00,74.3,60.9,28.53,North,355,0.0,4.0,63,0.00,FEW,,0.92,0.0,WeatherDisplay:10.37,2013-06-29 04:20:00,
2013-06-28 23:30:00,74.1,60.7,28.53,North,355,1.0,4.0,63,0.00,FEW,,0.92,0.0,WeatherDisplay:10.37,2013-06-29 04:30:00,
2013-06-28 23:40:00,74.0,60.6,28.53,North,355,0.0,3.0,63,0.00,FEW,,0.92,0.0,WeatherDisplay:10.37,2013-06-29 04:40:00,
2013-06-28 23:50:00,73.9,61.0,28.53,North,355,0.0,3.0,64,0.00,FEW,,0.92,0.0,WeatherDisplay:10.37,2013-06-29 04:50:00,